Tracking 28531 objects as of 2-Mar-2024
HD Live streaming from Space Station
objects crossing your sky now

FLOCK 4Q 8

Track FLOCK 4Q 8 now!
10-day predictions
FLOCK 4Q 8 is classified as:


NORAD ID: 58279
Int'l Code: 2023-174Z
Perigee: 515.0 km
Apogee: 529.5 km
Inclination: 97.5 °
Period: 94.9 minutes
Semi major axis: 6893 km
RCS: Unknown
Launch date: November 11, 2023
Source: United States (US)
Launch site: AIR FORCE WESTERN TEST RANGE (AFWTR)
Your satellite tracking list
Your tracking list is empty




NASA's NSSDC Master Catalog

Two Line Element Set (TLE):
1 58279U 23174Z   24061.66980708  .00026728  00000-0  13530-2 0  9994
2 58279  97.4708 137.7953 0010495 252.9818 107.0265 15.16931740 17395
Source of the keplerian elements: AFSPC